Powrót do katalogu

STARLINK-36760

AktywnyŁącznośćVLEO
NORAD 68956·PAYLOAD·🇺🇸 United States

Wystrzelony May 1, 2026 z Cape Canaveral Space Force Station

Loading…

Następne Przeloty (najbliższe 24 godziny)

TLE

ŚwieżeSource: CelesTrak SupGP

Epoka: Sep 14, 2026, 22:49 UTC

1 68956C 26099F   26257.95118056  .00006039  00000+0  17843-3 0  2577
2 68956  53.1577 101.8805 0001281  82.4361 161.0863 15.34384131    12

Śledź STARLINK-36760 w czasie rzeczywistym z AllMySat

Download on the App Store